Airfield :
LOGIN :

Register | Disclaimer

   EN    FR    IT 

 










Legend :    VFR   Marginal VFR   IFR   Intensive IFR   Very Intensive IFR
Visi :
Ceiling :
>= 8 km
>= 3000ft
5 to 8 km
1000 to 3000 ft
1500m to 5 km
500 to 1000 ft
800 to 1500m
200 to 500 ft
< 800m
< 200 ft
Symbols :   Thunderstorms  Fog  Heavy snow  Heavy precipitations  Wind > 20 kt
SIGMETs :     Misc.  Thunderstorms  Icing  Turbulence  Mountain Waves  Volcanic Ashes







- Airport Elevation : 26 ft


ETNT - Wittmundhaven AB

CURRENT METAR :
  • 172220Z AUTO 20009KT 5000 // ////// 03/01 Q1018 ///

EXPIRED METARs :
  • 172120Z AUTO 19010KT 8000 // ////// 02/01 Q1018 ///
  • 172020Z AUTO 19008KT 9999 // ////// 02/01 Q1019 ///

TAF TAF ETNT
Valid from the 17 at 21:00 until the 18 at 06:00 UTC


172055Z 1721/1806 21005KT 9999 NSW SCT020 BKN050
BECMG 1721/1723 19012KT 5000 -RA BKN012 OVC030
TEMPO 1800/1806 18015G25KT 2000 RASN BKN004 OVC010 CANCEL BY ETGL
No reported NOTAMs for that airfield.



MET'MAP, your aeronautical weather chart ! - Copyright ORBIFLY December 2007 - Disclaimer

ORBIFLY MET'MAP TEAM :

Programming & Development : Alexandra Zaïnal
Concept & Development : Baudouin d'Aumeries
Co-Development & Prog : Marc-Olivier Méhu
Technical & hardware support : Manuel Goepfert

Contact : metmap@orbifly.com




SOURCES & CREDITS :

   NOAA